TimeMDT,TemperatureF,Dew PointF,Humidity,Sea Level PressureIn,VisibilityMPH,Wind Direction,Wind SpeedMPH,Gust SpeedMPH,PrecipitationIn,Events,Conditions,WindDirDegrees,DateUTC
12:15 AM,37.4,35.6,93,29.72,10.0,SSE,5.8,-,N/A,,Mostly Cloudy,150,2013-09-26 06:15:00
12:35 AM,37.4,35.6,93,29.72,10.0,SSE,5.8,-,N/A,,Overcast,160,2013-09-26 06:35:00
12:55 AM,37.4,35.6,93,29.72,10.0,South,5.8,-,N/A,,Overcast,170,2013-09-26 06:55:00
1:15 AM,37.4,35.6,93,29.73,10.0,SSE,5.8,-,N/A,,Overcast,150,2013-09-26 07:15:00
1:35 AM,37.4,35.6,93,29.73,10.0,SSE,6.9,-,N/A,,Overcast,150,2013-09-26 07:35:00
1:55 AM,35.6,35.6,100,29.73,10.0,SSE,8.1,-,N/A,,Overcast,160,2013-09-26 07:55:00
2:15 AM,35.6,35.6,100,29.74,10.0,SSE,5.8,-,N/A,,Light Drizzle,160,2013-09-26 08:15:00
2:35 AM,35.6,35.6,100,29.75,10.0,SSE,6.9,-,N/A,,Light Drizzle,160,2013-09-26 08:35:00
2:55 AM,37.4,35.6,93,29.74,10.0,SE,6.9,-,N/A,,Light Drizzle,140,2013-09-26 08:55:00
3:15 AM,37.4,35.6,93,29.75,10.0,SSE,8.1,-,N/A,,Light Drizzle,150,2013-09-26 09:15:00
3:35 AM,37.4,35.6,93,29.75,10.0,SSE,6.9,-,N/A,,Light Drizzle,150,2013-09-26 09:35:00
3:55 AM,37.4,35.6,93,29.75,10.0,SSE,5.8,-,N/A,,Light Drizzle,150,2013-09-26 09:55:00
4:15 AM,37.4,35.6,93,29.75,10.0,SSE,4.6,-,N/A,,Light Drizzle,150,2013-09-26 10:15:00
4:35 AM,37.4,35.6,93,29.75,7.0,SE,4.6,-,N/A,,Overcast,140,2013-09-26 10:35:00
4:55 AM,37.4,35.6,93,29.75,5.0,ESE,4.6,-,N/A,,Overcast,120,2013-09-26 10:55:00
5:15 AM,37.4,35.6,93,29.75,5.0,SE,3.5,-,N/A,,Overcast,140,2013-09-26 11:15:00
5:35 AM,37.4,35.6,93,29.75,7.0,Calm,Calm,-,N/A,,Overcast,0,2013-09-26 11:35:00
5:55 AM,37.4,37.4,100,29.75,7.0,SE,5.8,-,N/A,,Overcast,140,2013-09-26 11:55:00
6:15 AM,37.4,37.4,100,29.75,10.0,SSE,4.6,-,N/A,,Light Drizzle,160,2013-09-26 12:15:00
6:35 AM,37.4,37.4,100,29.75,7.0,SE,4.6,-,N/A,,Drizzle,140,2013-09-26 12:35:00
6:47 AM,37.4,37.4,100,29.76,3.0,SE,9.2,-,N/A,Rain,Light Rain,130,2013-09-26 12:47:00
6:55 AM,37.4,37.4,100,29.76,7.0,SE,5.8,-,N/A,,Light Drizzle,140,2013-09-26 12:55:00
7:47 AM,37.4,37.4,100,29.78,5.0,SE,9.2,-,N/A,Rain,Light Rain,130,2013-09-26 13:47:00
8:47 AM,37.4,37.4,100,29.78,5.0,SE,5.8,-,N/A,Rain,Light Rain,130,2013-09-26 14:47:00
9:47 AM,39.2,37.4,93,29.79,6.0,SE,8.1,-,N/A,Rain,Light Rain,130,2013-09-26 15:47:00
10:47 AM,39.2,37.4,93,29.80,4.0,SE,5.8,-,N/A,Rain,Light Rain,130,2013-09-26 16:47:00
11:47 AM,39.2,37.4,93,29.82,4.0,ESE,5.8,-,N/A,Rain,Light Rain,120,2013-09-26 17:47:00
12:50 PM,39.2,37.4,93,29.82,3.0,SE,9.2,-,N/A,Rain,Light Rain,130,2013-09-26 18:50:00
1:47 PM,39.2,37.4,93,29.84,3.0,ESE,4.6,-,N/A,Rain,Light Rain,120,2013-09-26 19:47:00
2:47 PM,41.0,37.4,87,29.84,5.0,SSE,6.9,-,N/A,Rain,Light Rain,150,2013-09-26 20:47:00
3:47 PM,37.4,37.4,100,29.87,5.0,West,8.1,-,N/A,Rain,Light Rain,270,2013-09-26 21:47:00
4:55 PM,39.2,37.4,93,29.88,10.0,WNW,6.9,-,N/A,,Mostly Cloudy,300,2013-09-26 22:55:00
5:50 PM,41.0,37.4,87,29.89,10.0,WNW,11.5,-,N/A,,Mostly Cloudy,300,2013-09-26 23:50:00
6:47 PM,41.0,35.6,81,29.89,10.0,NW,11.5,-,N/A,,Mostly Cloudy,310,2013-09-27 00:47:00
7:50 PM,39.2,35.6,87,29.91,10.0,WNW,9.2,-,N/A,,Mostly Cloudy,300,2013-09-27 01:50:00
8:47 PM,37.4,33.8,87,29.94,10.0,West,11.5,-,N/A,,Scattered Clouds,280,2013-09-27 02:47:00
9:47 PM,37.4,33.8,87,29.94,10.0,West,6.9,-,N/A,,Scattered Clouds,280,2013-09-27 03:47:00
10:47 PM,35.6,33.8,93,29.94,10.0,NW,4.6,-,N/A,,Scattered Clouds,320,2013-09-27 04:47:00
11:15 PM,33.8,32.0,93,29.95,10.0,NNW,6.9,-,N/A,,Scattered Clouds,330,2013-09-27 05:15:00
11:35 PM,35.6,32.0,87,29.95,10.0,NW,9.2,-,N/A,,Clear,320,2013-09-27 05:35:00
11:55 PM,33.8,32.0,93,29.95,10.0,NW,4.6,-,N/A,,Clear,320,2013-09-27 05:55:00